Regional Weather Roundup
Issued by NWS Charleston, SC

Current Version | Previous Version | Graphics & Text | Print | Product List | Glossary On
Versions: 1 2 3 4 5 6 7 8 9 10 11 12 13 14 15 16 17 18 19 20 21 22 23 24 25 26 27 28 29 30 31 32 33 34 35 36 37 38 39 40 41 42 43 44 45 46 47 48 49 50
000
ASUS42 KCHS 192110
RWRCHS
REGIONAL WEATHER ROUNDUP
NATIONAL WEATHER SERVICE CHARLESTON SC
500 PM EDT FRI SEP 19 2014

NOTE: "FAIR" INDICATES FEW OR NO CLOUDS BELOW 12,000 FEET WITH NO
SIGNIFICANT WEATHER AND/OR OBSTRUCTIONS TO VISIBILITY.

NOT ALL STATIONS ARE QUALITY CONTROLLED BY THE NATIONAL
WEATHER SERVICE. USE DATA WITH CAUTION...ESPECIALLY
DEWPOINT OBSERVATIONS.

SCZ027-030-031-034>040-042>050-192200-
...SOUTH CAROLINA...

CITY           SKY/WX    TMP DP  RH WIND       PRES   REMARKS
N CHARLESTON   HVY RAIN  72  68  87 NE13      30.08S FOG
WATERFRONT PRK   N/A     75 N/A N/A N16         N/A
FORT JOHNSON   NOT AVBL
MOUNT PLEASANT FAIR      72  68  88 CALM      30.07S
JOHNS ISLAND   MOCLDY    73  73 100 N12G17    30.06S
PINOPOLIS        N/A     73  68  83 SE6G14    30.00F
MONCKS CORNER  LGT RAIN  72  68  88 SE3       30.09S
SUMMERVILLE    RAIN      70  68  94 E9G17     30.10R
BEAUFORT MCAS  PTSUNNY   75  69  81 NE20G28   30.04S
BEAUFORT ARPT  FAIR      81  72  74 E20G25    30.03S
HILTON HEAD IS MOSUNNY   79  72  78 NE12G20   30.03F
GEORGETOWN     NOT AVBL
WALTERBORO     MOCLDY    73  73 100 NE5       30.08S
ORANGEBURG     LGT RAIN  71  67  87 NE6       30.09R
BARNWELL       RAIN      73  68  83 SE6       30.08R
AIKEN          CLOUDY    77  72  83 NE9       30.12R
MANNING        CLOUDY    75  75 100 CALM      30.10R
KINGSTREE      NOT AVBL
COLUMBIA       PTSUNNY   83  63  50 E9        30.08S
SUMTER         PTSUNNY   79  65  62 NE12      30.08S
FLORENCE       CLOUDY    78  64  61 E15       30.11S
MYRTLE BEACH   PTSUNNY   79  66  65 E14       30.09S
N MYRTLE BEACH PTSUNNY   81  67  62 E15G23    30.09F

$$

GAZ063-065-086>088-099>101-113>116-118-119-134-136>141-150-192200-
...GEORGIA...

CITY           SKY/WX    TMP DP  RH WIND       PRES   REMARKS
SAVANNAH ARPT  CLOUDY    81  69  67 NE13      30.01F
HUNTER AAF     CLOUDY    80  71  73 E13       29.98F
FORT STEWART   CLOUDY    80  70  73 E7        30.00S
STATESBORO     NOT AVBL
SYLVANIA       TSTM      82  76  83 NE6       30.04R
CLAXTON        MOCLDY    77  77 100 NE10      30.01S
THOMSON        MOSUNNY   83  72  70 E6        30.11S
AUGUSTA-BUSH   PTSUNNY   80  66  62 E10       30.05S
AUGUSTA-DANIEL MOSUNNY   82  67  60 NE13      30.07S
SWAINSBORO     FAIR      86  70  58 NE9       30.03S HX  90
VIDALIA        PTSUNNY   81  70  69 E16G23    30.02R
ALMA           PTSUNNY   79  68  69 E8        30.00R
WAYCROSS       HVY RAIN  76  69  79 SE9       30.00R VSB 1
JESUP          FAIR      79  72  78 E5        30.01S
BRUNSWICK      CLOUDY    72  64  78 E3        30.00F
SAINT SIMONS   LGT RAIN  73  68  84 NW12      29.99R

$$

SCZ027-028-034-036>038-045-046-048>050-GAZ119-141-192200-
...LAKE AND SUPPLEMENTAL COASTAL OBSERVATIONS...

STATION/POSITION TIME  TEMP    WIND        PRES    WAVE   SWELL
                       AIR SEA DIR/SP/G            HT/PER HT/PER/DIR
                 (UTC) (F)     (DEG/KT/KT) (MB)    (FT/S) (FT/S/D)
UPR LAKE MARION  NOT AVBL
WINYAH BAY       NOT AVBL
LAKE MURRAY      2000   78      40/  4/  6 1018.3F
ACE BASIN NERRS  NOT AVBL
FORT PULASKI     2100   80      80/ 17/ 19 1016.4F
SAPELO ISLAND    2000   77      40/ 17     1017.0S

$$

ANZ835-935-AMZ111-154-330-350-352-354-374-450-454-472-192200-
...C-MAN AND BUOY OBSERVATIONS...

STATION/POSITION TIME  TEMP    WIND        PRES    WAVE   SWELL
                       AIR SEA DIR/SP/G            HT/PER HT/PER/DIR
                 (UTC) (F)     (DEG/KT/KT) (MB)    (FT/S) (FT/S/D)
FOLLY BEACH CMAN 2000   79      90/ 22/ 24 1018.1R
BUOY 41004       2100   79 82   90/ 16/ 19 1016.7R   6/ 6
BUOY 41008       2100   80 84   70/ 17/ 19 1015.2F   3/ 4   2/ 90/ 8
5E ST. MARYS GA  2100      84                N/A     3/10
FRYING PAN BUOY  NOT AVBL
BUOY 41025       2100   78      30/ 17/ 21 1020.6S   6/ 7   2/ 50/11
CAPE LOOKOUT NC  2000   73      40/ 26/ 31 1020.4F
BUOY 41002       2047   79 82   70/ 14/ 19 1017.5F   4/ 8   2/ 80/ 8
BUOY 41010       2100   83 85   70/ 12/ 16 1014.0R   3/10   2/ 60/10
BUOY 41012       NOT AVBL
ST AUGUSTINE FL  2100   81      90/ 11/ 12 1015.2F
CAPERS NEARSHORE 2000   79      90/ 19/ 23   N/A
FRIPP NEARSHORE  NOT AVBL


$$


USA.gov is the U.S. government's official web portal to all federal, state and local government web resources and services.